Regional Weather Roundup
Issued by NWS

Home | Current Version | Previous Version | Graphics & Text | Print | Product List | Glossary Off
Versions: 1 2 3 4 5 6 7 8 9 10 11 12 13 14 15 16 17 18 19 20 21 22 23 24 25 26 27 28 29 30 31 32 33 34 35 36 37 38 39 40 41 42 43 44 45 46 47 48 49 50

000
ASUS43 KTOP 261208
RWRKS

WEATHER ROUNDUP FOR KANSAS
NATIONAL WEATHER SERVICE GOODLAND KS
600 AM CST FRI DEC 26 2014

NOTE:  "FAIR" INDICATES FEW OR NO CLOUDS BELOW 12,000 FEET WITH NO
SIGNIFICANT WEATHER AND/OR OBSTRUCTIONS TO VISIBILITY.

KSZ001>006-013>018-027>032-041>047-261300-
NORTHWEST KANSAS

CITY           SKY/WX    TMP DP  RH WIND       PRES   REMARKS
GOODLAND       CLOUDY    24  22  91 N16G22    29.89R WCI  11
6HR MIN TEMP:  23; 6HR MAX TEMP:  28; 6HR PCP: TRACE;

HAYS           CLOUDY    30  19  64 N16G22    29.90R WCI  19
HILL CITY      CLOUDY    30  24  78 N13       29.93R WCI  20
6HR MIN TEMP:  30; 6HR MAX TEMP:  32;

RUSSELL        CLOUDY    31  28  89 N18       29.88R WCI  19
6HR MIN TEMP:  30; 6HR MAX TEMP:  33;

$$

KSZ061>065-074>080-084>089-261300-
SOUTHWEST KANSAS

CITY           SKY/WX    TMP DP  RH WIND       PRES   REMARKS
DODGE CITY     CLOUDY    30  26  85 N18       29.86R WCI  18
6HR MIN TEMP:  27; 6HR MAX TEMP:  30;

ELKHART          N/A     29  20  69 N12         N/A  WCI  19
GARDEN CITY    CLOUDY    29  25  85 N18       29.87R WCI  16
6HR MIN TEMP:  26; 6HR MAX TEMP:  29;

GREAT BEND     CLOUDY    32  27  80 N20       29.89S WCI  20
LIBERAL        CLOUDY    30  21  69 N18       29.88R WCI  18
PRATT          CLOUDY    32  30  93 N18       29.86S WCI  20
$$

KSZ066>073-081>083-090>101-261300-
SOUTHEAST KANSAS

CITY           SKY/WX    TMP DP  RH WIND       PRES   REMARKS
CHANUTE        PTCLDY    44  37  76 S13       29.89R
6HR MIN TEMP:  44; 6HR MAX TEMP:  48;

COFFEYVILLE    PTCLDY    47  40  76 S10       29.91R
6HR MIN TEMP:  46; 6HR MAX TEMP:  49;

HUTCHINSON     CLOUDY    32  28  85 N10       29.86S WCI  24
6HR MIN TEMP:  30; 6HR MAX TEMP:  46;

MEDICINE LODGE   N/A     31  28  89 N9        29.86R
NEWTON         MOCLDY    32  25  74 N12       29.86R WCI  23
PARSONS        PTCLDY    46  39  76 S9        29.91R
6HR MIN TEMP:  45; 6HR MAX TEMP:  49;

WICHITA INTL   CLOUDY    38  29  70 N14       29.85R WCI  30
6HR MIN TEMP:  38; 6HR MAX TEMP:  46;

WICHITA JABRA  CLOUDY    41  31  67 W7        29.85R
6HR MIN TEMP:  39; 6HR MAX TEMP:  47;

WICHITA MCCONL CLOUDY    42  32  68 S5        29.84R
WINFIELD       CLOUDY    43  34  70 S5        29.86R
6HR MIN TEMP:  43; 6HR MAX TEMP:  50;

$$

KSZ007>012-019>026-033>040-048>060-102>105-261300-
NORTHEAST KANSAS

CITY           SKY/WX    TMP DP  RH WIND       PRES   REMARKS
CONCORDIA      CLOUDY    32  31  96 N10       29.89R WCI  24
6HR MIN TEMP:  30; 6HR MAX TEMP:  41;

EMPORIA        CLOUDY    43  33  68 S14       29.84R
6HR MIN TEMP:  43; 6HR MAX TEMP:  47;

LAWRENCE       CLOUDY    45  33  63 S9        29.86R
6HR MIN TEMP:  44; 6HR MAX TEMP:  48;

MANHATTAN      CLOUDY    32  30  92 VRB6G16   29.88R
6HR MIN TEMP:  32; 6HR MAX TEMP:  44;

MARYSVILLE     CLOUDY    32  32 100 N16G23    29.87R FOG     WCI  21
OLATHE IND     CLOUDY    45  35  68 S9        29.87R
6HR MIN TEMP:  45; 6HR MAX TEMP:  47;

OLATHE EXE     CLOUDY    46  35  65 S9        29.87R
6HR MIN TEMP:  46; 6HR MAX TEMP:  47;

SALINA         CLOUDY    35  31  85 N15       29.89R WCI  25
6HR MIN TEMP:  31; 6HR MAX TEMP:  43;

TOPEKA BILLARD CLOUDY    39  32  76 CALM      29.86R
6HR MIN TEMP:  37; 6HR MAX TEMP:  49;

TOPEKA FORBES  CLOUDY    42  32  67 S5        29.84R
6HR MIN TEMP:  42; 6HR MAX TEMP:  48;

$$


USA.gov is the U.S. government's official web portal to all federal, state and local government web resources and services.